Location: ????????
(54.6123°N, 39.2099°E)
Time: 13:59:41
(UTC+00:00)

NOSS 3-1 (C) - Pass Details

Date: 19 May 2025
Orbit: 625 x 1577 km, 63.4° (Epoch: 18 June)

Event Time Altitude Azimuth Distance (km) Brightness Sun altitude
Rises 18:31:20 0° 197° (SSW) 2,982 5.7 -7.2°
Reaches altitude 10° 18:33:35 10° 188° (S) 2,139 4.9 -7.4°
Maximum altitude 18:38:00 37° 122° (ESE) 1,185 3.5 -7.8°
Drops below altitude 10° 18:43:17 10° 56° (ENE) 2,574 5.7 -8.3°
Sets 18:46:15 0° 49° (NE) 3,679 6.6 -8.6°
